Location: *
(49.9853°N, 3.5569°E)
Time: 07:11:02
(UTC+00:00)

Cosmos 2084 Rocket - Pass Details

Date: 22 September 2019
Orbit: 571 x 610 km, 62.8° (Epoch: 19 October)

Event Time Altitude Azimuth Distance (km) Brightness Sun altitude
Rises 19:24:08 0° 219° (SW) 2,855 7.2 -16.5°
Reaches altitude 10° 19:26:23 10° 218° (SW) 1,958 6.3 -16.8°
Maximum altitude 19:30:49 80° 133° (SE) 626 3.4 -17.5°
Drops below altitude 10° 19:35:18 10° 46° (NE) 1,971 5.9 -18.1°
Enters shadow 19:35:37 - 46° (NE) 2,095 6.1 -18.2°
